Auburn, IN

6:49 AM EST on December 07, 2019 (GMT -0500)
Auburn

Weather History for KGWB - May, 2019

Change the Weather History Date:

Wednesday, May 29, 2019

  Actual Average (KFWA) Record (KFWA)
Temperature  
Mean Temperature 68 °F -  
Max Temperature 77 °F 76 °F 93 °F (1942)
Min Temperature 60 °F 54 °F 33 °F (1902)
Cooling Degree Days 4    
Growing Degree Days 18 (Base 50)    
Moisture  
Dew Point 62 °F    
Average Humidity 83    
Maximum Humidity 100    
Minimum Humidity 61    
Precipitation  
Precipitation 0.00 in - - ()
Sea Level Pressure  
Sea Level Pressure 29.77 in    
Wind  
Wind Speed 4 mph (WNW)    
Max Wind Speed 13 mph    
Max Gust Speed 22 mph    
Visibility 10 miles    
Events Rain    
Averages and records for this station are not official NWS values.
T = Trace of Precipitation, MM = Missing Value Source: NWS Daily Summary

Daily Weather History Graph

Daily Weather History Graph

Search for Another Location

Airport or City:

Astronomy

May. 29, 2019 Rise Set
Actual Time 6:11 AM EDT 9:04 PM EDT
Civil Twilight 5:38 AM EDT 9:37 PM EDT
Nautical Twilight 4:56 AM EDT 10:19 PM EDT
Astronomical Twilight 4:08 AM EDT 11:07 PM EDT
Moon 3:53 AM EDT (5/29) 4:08 PM EDT (5/29)
Length of Visible Light 15h 59m
Length of Day
14h 53m
Waning Crescent, 23% of the Moon is Illuminated
May 29
Waning Crescent
Jun 3
New
Jun 10
First Quarter
Jun 17
Full
Jun 25
Last Quarter

Hourly Weather History & Observations

Time (EDT) Temp. Dew Point Humidity Pressure Visibility Wind Dir Wind Speed Gust Speed Precip Events Conditions
12:15 AM 64.4 °F 64.4 °F 100% 29.77 in 10.0 mi South 3.5 mph - N/A   Overcast
12:35 AM 64.4 °F 62.6 °F 94% 29.77 in 10.0 mi Calm Calm - N/A   Mostly Cloudy
12:55 AM 64.4 °F 64.4 °F 100% 29.77 in 10.0 mi Calm Calm - N/A   Overcast
1:15 AM 64.4 °F 64.4 °F 100% 29.77 in 10.0 mi Calm Calm - N/A   Scattered Clouds
1:35 AM 64.4 °F 64.4 °F 100% 29.78 in 10.0 mi NNW 6.9 mph - N/A   Scattered Clouds
1:55 AM 62.6 °F 60.8 °F 94% 29.80 in 10.0 mi NW 10.4 mph 17.3 mph N/A   Mostly Cloudy
2:15 AM 62.6 °F 60.8 °F 94% 29.79 in 10.0 mi North 9.2 mph - N/A   Mostly Cloudy
2:35 AM 62.6 °F 60.8 °F 94% 29.77 in 10.0 mi ENE 4.6 mph - N/A   Mostly Cloudy
2:55 AM 62.6 °F 60.8 °F 94% 29.77 in 10.0 mi North 5.8 mph - N/A   Mostly Cloudy
3:15 AM 62.6 °F 59.0 °F 88% 29.76 in 10.0 mi NE 5.8 mph - N/A   Overcast
3:35 AM 60.8 °F 59.0 °F 94% 29.75 in 10.0 mi ENE 3.5 mph - N/A   Mostly Cloudy
3:55 AM 60.8 °F 59.0 °F 94% 29.74 in 10.0 mi Calm Calm - N/A   Overcast
4:15 AM 60.8 °F 60.8 °F 100% 29.74 in 10.0 mi Calm Calm - N/A   Overcast
4:35 AM 60.8 °F 60.8 °F 100% 29.73 in 10.0 mi Calm Calm - N/A   Mostly Cloudy
4:55 AM 60.8 °F 60.8 °F 100% 29.75 in 10.0 mi Calm Calm - N/A   Mostly Cloudy
5:15 AM 60.8 °F 60.8 °F 100% 29.73 in 10.0 mi Calm Calm - N/A   Mostly Cloudy
5:35 AM 60.8 °F 60.8 °F 100% 29.75 in 10.0 mi West 3.5 mph - N/A   Scattered Clouds
5:55 AM 60.8 °F 60.8 °F 100% 29.75 in 10.0 mi Calm Calm - N/A   Scattered Clouds
6:15 AM 60.8 °F 60.8 °F 100% 29.74 in 10.0 mi NNW 4.6 mph - N/A   Scattered Clouds
6:35 AM 60.8 °F 60.8 °F 100% 29.76 in 10.0 mi WNW 3.5 mph - N/A   Scattered Clouds
6:55 AM 60.8 °F 60.8 °F 100% 29.76 in 7.0 mi Calm Calm - N/A   Mostly Cloudy
7:15 AM 60.8 °F 60.8 °F 100% 29.75 in 7.0 mi South 4.6 mph - N/A   Mostly Cloudy
7:35 AM 60.8 °F 60.8 °F 100% 29.74 in 7.0 mi Calm Calm - N/A Rain Light Rain
7:55 AM 60.8 °F 60.8 °F 100% 29.73 in 7.0 mi Calm Calm - N/A   Scattered Clouds
8:15 AM 62.6 °F 60.8 °F 94% 29.75 in 7.0 mi West 3.5 mph - N/A Rain Light Rain
8:35 AM 62.6 °F 62.6 °F 100% 29.73 in 7.0 mi Calm Calm - N/A   Scattered Clouds
8:55 AM 64.4 °F 62.6 °F 94% 29.75 in 7.0 mi NW 11.5 mph 17.3 mph N/A   Scattered Clouds
9:15 AM 64.4 °F 62.6 °F 94% 29.74 in 10.0 mi NNW 3.5 mph - N/A   Mostly Cloudy
9:35 AM 64.4 °F 60.8 °F 88% 29.75 in 10.0 mi NW 5.8 mph - N/A   Mostly Cloudy
10:00 AM 64.4 °F 60.8 °F 88% 29.74 in 10.0 mi Calm Calm - N/A   Mostly Cloudy
10:15 AM 64.4 °F 60.8 °F 88% 29.76 in 10.0 mi WNW 4.6 mph - N/A   Mostly Cloudy
10:35 AM 66.2 °F 62.6 °F 88% 29.76 in 10.0 mi Calm Calm - N/A Rain Light Rain
10:55 AM 68.0 °F 60.8 °F 78% 29.77 in 10.0 mi SW 5.8 mph - N/A   Scattered Clouds
11:15 AM 68.0 °F 62.6 °F 83% 29.77 in 10.0 mi WSW 4.6 mph - N/A   Clear
11:35 AM 68.0 °F 60.8 °F 78% 29.76 in 10.0 mi West 4.6 mph - N/A   Clear
11:55 AM 69.8 °F 62.6 °F 78% 29.77 in 10.0 mi SW 3.5 mph - N/A   Clear
12:15 PM 69.8 °F 62.6 °F 78% 29.78 in 10.0 mi West 10.4 mph - N/A   Clear
12:40 PM 71.6 °F 62.6 °F 73% 29.78 in 10.0 mi West 6.9 mph - N/A   Scattered Clouds
12:55 PM 71.6 °F 62.6 °F 73% 29.78 in 10.0 mi WNW 12.7 mph 17.3 mph N/A   Mostly Cloudy
1:20 PM 71.6 °F 62.6 °F 73% 29.78 in 10.0 mi WSW 9.2 mph - N/A   Scattered Clouds
1:35 PM 71.6 °F 60.8 °F 69% 29.79 in 10.0 mi West 12.7 mph 21.9 mph N/A   Mostly Cloudy
1:55 PM 73.4 °F 62.6 °F 69% 29.77 in 10.0 mi West 11.5 mph 19.6 mph N/A   Overcast
2:15 PM 73.4 °F 62.6 °F 69% 29.77 in 10.0 mi West 11.5 mph 16.1 mph N/A   Overcast
2:35 PM 73.4 °F 62.6 °F 69% 29.78 in 10.0 mi West 12.7 mph 17.3 mph N/A   Mostly Cloudy
2:55 PM 73.4 °F 62.6 °F 69% 29.78 in 10.0 mi West 11.5 mph - N/A   Scattered Clouds
3:15 PM 75.2 °F 62.6 °F 65% 29.78 in 10.0 mi West 11.5 mph 18.4 mph N/A   Scattered Clouds
3:35 PM 75.2 °F 62.6 °F 65% 29.77 in 10.0 mi WNW 10.4 mph - N/A   Scattered Clouds
3:55 PM 77.0 °F 62.6 °F 61% 29.76 in 10.0 mi WNW 11.5 mph - N/A   Clear
4:10 PM 77.0 °F 62.6 °F 61% 29.77 in 10.0 mi West 8.1 mph - N/A   Clear
4:35 PM 77.0 °F 62.6 °F 61% 29.77 in 10.0 mi West 9.2 mph - N/A   Scattered Clouds
4:55 PM 77.0 °F 62.6 °F 61% 29.76 in 10.0 mi West 9.2 mph - N/A   Scattered Clouds
5:15 PM 77.0 °F 62.6 °F 61% 29.77 in 10.0 mi WNW 12.7 mph 17.3 mph N/A   Clear
5:35 PM 77.0 °F 62.6 °F 61% 29.77 in 10.0 mi West 12.7 mph - N/A   Clear
5:55 PM 75.2 °F 60.8 °F 61% 29.77 in 10.0 mi WSW 9.2 mph 16.1 mph N/A   Clear
6:20 PM 77.0 °F 62.6 °F 61% 29.78 in 10.0 mi West 8.1 mph - N/A   Clear
6:30 PM 77.0 °F 62.6 °F 61% 29.77 in 10.0 mi West 6.9 mph - N/A   Clear
7:00 PM 75.2 °F 60.8 °F 61% 29.77 in 10.0 mi West 8.1 mph - N/A   Clear
7:18 PM 75.2 °F 62.6 °F 65% 29.77 in 10.0 mi West 8.1 mph - N/A   Clear
7:35 PM 75.2 °F 60.8 °F 61% 29.77 in 10.0 mi WNW 9.2 mph - N/A   Clear
8:00 PM 73.4 °F 62.6 °F 69% 29.78 in 10.0 mi WNW 6.9 mph - N/A   Clear
8:20 PM 71.6 °F 62.6 °F 73% 29.78 in 10.0 mi WNW 5.8 mph - N/A   Clear
8:30 PM 71.6 °F 62.6 °F 73% 29.78 in 10.0 mi NW 3.5 mph - N/A   Clear
9:00 PM 69.8 °F 62.6 °F 78% 29.78 in 10.0 mi NW 3.5 mph - N/A   Clear
9:15 PM 68.0 °F 60.8 °F 78% 29.78 in 10.0 mi WNW 3.5 mph - N/A   Clear
9:35 PM 68.0 °F 60.8 °F 78% 29.78 in 10.0 mi NW 3.5 mph - N/A   Clear
9:55 PM 66.2 °F 60.8 °F 83% 29.80 in 10.0 mi Calm Calm - N/A   Clear
10:15 PM 64.4 °F 60.8 °F 88% 29.81 in 10.0 mi NW 3.5 mph - N/A   Clear
10:35 PM 64.4 °F 60.8 °F 88% 29.82 in 10.0 mi Calm Calm - N/A   Clear
10:55 PM 62.6 °F 60.8 °F 94% 29.82 in 10.0 mi Calm Calm - N/A   Clear
11:20 PM 64.4 °F 60.8 °F 88% 29.82 in 10.0 mi Calm Calm - N/A   Clear
11:35 PM 64.4 °F 60.8 °F 88% 29.82 in 10.0 mi Calm Calm - N/A   Clear
11:55 PM 64.4 °F 60.8 °F 88% 29.82 in 10.0 mi Calm Calm - N/A   Clear